Regional Weather Roundup
Issued by NWS Midland/Odessa, TX

Skip options and go directly to product.
Home | Oldest Version | Next Version | Current Version | All | Text Only | Save Text | Print | Product List | Glossary On

Skip product version selection by date and time.   
949
ASUS44 KMAF 241201
RWRMAF
MIDLAND AREA WEATHER ROUNDUP
NATIONAL WEATHER SERVICE MIDLAND TX
600 AM CST SAT JAN 24 2015

...IN SOUTHWEST TEXAS AND SOUTHEAST NEW MEXICO...

CITY           SKY/WX    TMP DP  RH WIND       PRES   REMARKS
ALPINE         MOCLDY    28  21  76 S5        30.34F WCI  23
ANDREWS        FAIR      32  24  71 NW7       30.27S WCI  26
ARTESIA        CLEAR     25  23  93 NW7       30.31F WCI  17
BIG SPRING     CLEAR     31  26  79 CALM      30.27S
CARLSBAD       CLEAR     29  21  72 N7        30.30S WCI  22
DRYDEN           N/A     36  28  73 W9        30.26S WCI  29
FORT STOCKTON  PTCLDY    33  26  75 W10       30.30S WCI  25
GUAD PASS      NOT AVBL
HOBBS          FAIR      32  25  74 NW12      30.28R WCI  23
MARFA          MOCLDY    23  21  93 NE3       30.29S
MIDLAND AIRPK  PTCLDY    33  26  73 NW9       30.26F WCI  26
MIDLAND INTL   PTCLDY    34  25  69 NW10      30.26S WCI  26
ODESSA         PTCLDY    33  22  63 N9        30.27S WCI  25
PECOS          PTCLDY    30  26  86 W8        30.32S WCI  23
PRESIDIO       FAIR      36  31  82 CALM      30.32S
SEMINOLE       CLEAR     31  24  76 NW9       30.27S WCI  23
SNYDER         CLEAR    N/A N/A N/A NW10      30.22F
WINK           PTCLDY    27  22  81 N6        30.28S WCI  20
$$
...OTHER STATIONS IN TEXAS...

CITY           SKY/WX    TMP DP  RH WIND       PRES   REMARKS
ABILENE        CLEAR     34  26  72 NW7       30.20F WCI  28
AMARILLO       PTCLDY    28  22  78 NW10      30.22F WCI  19
AUSTIN         CLEAR     29  29 100 CALM      30.23S
BROWNSVILLE    CLEAR     40  37  89 W5        30.33S WCI  37
CORPUS CHRISTI CLEAR     36  34  92 W8        30.30S WCI  30
DALLAS FTW     CLEAR     33  28  81 NW7       30.13F WCI  27
DEL RIO        CLEAR     33  31  92 NW6       30.29S WCI  28
EL PASO        MOCLDY    28  23  81 N7        30.31S WCI  21
HOUSTON INT    PTCLDY    36  35  96 SW6       30.23R WCI  31
LUBBOCK        CLEAR     30  23  75 NW13      30.23S WCI  20
SAN ANGELO     CLEAR     30  27  88 S5        30.23S WCI  25
SAN ANTONIO    PTCLDY    36  32  85 CALM      30.26S
WACO           CLEAR     32  31  96 SW7       30.18F WCI  26
WICHITA FALLS  NOT AVBL
$$
...OTHER LOCATIONS IN NEW MEXICO...

CITY           SKY/WX    TMP DP  RH WIND       PRES   REMARKS
ALAMAGORDO     PTCLDY    19  16  86 NE3       30.33S
ALBUQUERQUE    PTCLDY    26  19  74 N8        30.33F WCI  18
CANNON AFB     PTCLDY    28  17  63 NW8       30.25S WCI  20
CLOVIS         CLEAR     21  14  73 W10       30.25S WCI  10
HOLLOMAN AFB   PTCLDY    23  21  90 N5        30.32S WCI  17
ROSWELL        PTCLDY    21  16  81 CALM      30.29F
RUIDOSO        CLEAR     27  10  50 CALM      30.31F
SANTA FE       PTCLDY    19  14  81 N16       30.30F WCI   4
TRUTH OR CONSE CLEAR     25  19  78 N3        30.31S
TUCUMCARI      CLEAR     17  13  84 SW6       30.25F WCI   9
$$

USA.gov is the U.S. government's official web portal to all federal, state and local government web resources and services.